Time,TemperatureF,DewpointF,PressureIn,WindDirection,WindDirectionDegrees,WindSpeedMPH,WindSpeedGustMPH,Humidity,HourlyPrecipIn,Conditions,Clouds,dailyrainin,SoftwareType,DateUTC
2013-06-08 00:01:00,53.7,52.9,29.78,NE,41,0.0,0.0,97,0.00,,,0.04,Wunderground v.1.15,2013-06-08 04:01:00,
2013-06-08 00:02:00,53.7,52.9,29.78,NE,41,0.0,0.0,97,0.00,,,0.05,Wunderground v.1.15,2013-06-08 04:02:00,
2013-06-08 00:03:00,53.7,52.9,29.77,NE,41,0.0,0.0,97,0.00,,,0.05,Wunderground v.1.15,2013-06-08 04:03:00,
2013-06-08 00:05:00,53.7,52.9,29.78,NE,40,0.0,0.0,97,0.00,,,0.05,Wunderground v.1.15,2013-06-08 04:05:00,
2013-06-08 00:10:00,53.7,52.9,29.77,NE,41,0.0,0.0,97,0.00,,,0.05,Wunderground v.1.15,2013-06-08 04:10:00,
2013-06-08 00:16:00,53.7,52.9,29.77,NE,41,0.0,0.0,97,0.00,,,0.05,Wunderground v.1.15,2013-06-08 04:16:00,
2013-06-08 00:21:00,53.7,52.9,29.77,NE,41,0.0,0.0,97,0.00,,,0.05,Wunderground v.1.15,2013-06-08 04:21:00,
2013-06-08 00:26:00,53.7,52.9,29.77,NE,41,0.0,0.0,97,0.00,,,0.06,Wunderground v.1.15,2013-06-08 04:26:00,
2013-06-08 00:31:00,53.7,52.9,29.76,NE,40,0.0,0.0,97,0.00,,,0.06,Wunderground v.1.15,2013-06-08 04:31:00,
2013-06-08 00:37:00,53.8,53.0,29.75,NE,41,0.0,0.0,97,0.00,,,0.06,Wunderground v.1.15,2013-06-08 04:37:00,
2013-06-08 00:42:00,53.7,52.9,29.74,NNW,332,0.0,0.0,97,0.00,,,0.07,Wunderground v.1.15,2013-06-08 04:42:00,
2013-06-08 00:48:00,53.7,52.9,29.72,NNW,339,2.0,2.0,97,0.00,,,0.07,Wunderground v.1.15,2013-06-08 04:48:00,
2013-06-08 00:53:00,53.7,52.9,29.73,ENE,71,0.0,0.0,97,0.00,,,0.07,Wunderground v.1.15,2013-06-08 04:53:00,
2013-06-08 00:59:00,53.6,52.8,29.72,NE,38,2.0,3.0,97,0.00,,,0.08,Wunderground v.1.15,2013-06-08 04:59:00,
2013-06-08 01:05:00,53.5,52.7,29.72,East,89,0.0,3.0,97,0.00,,,0.08,Wunderground v.1.15,2013-06-08 05:05:00,
2013-06-08 01:10:00,53.3,52.2,29.71,WNW,303,1.0,1.0,96,0.00,,,0.08,Wunderground v.1.15,2013-06-08 05:10:00,
2013-06-08 01:16:00,53.2,52.1,29.72,NE,38,1.0,3.0,96,0.04,,,0.09,Wunderground v.1.15,2013-06-08 05:16:00,
2013-06-08 01:21:00,53.1,52.0,29.73,NNE,15,0.0,1.0,96,0.04,,,0.09,Wunderground v.1.15,2013-06-08 05:21:00,
2013-06-08 01:27:00,53.1,52.0,29.73,NNE,15,0.0,1.0,96,0.04,,,0.09,Wunderground v.1.15,2013-06-08 05:27:00,
2013-06-08 01:32:00,53.1,52.3,29.74,NNE,15,0.0,0.0,97,0.00,,,0.09,Wunderground v.1.15,2013-06-08 05:32:00,
2013-06-08 01:38:00,53.1,52.3,29.74,NNE,15,0.0,1.0,97,0.00,,,0.10,Wunderground v.1.15,2013-06-08 05:38:00,
2013-06-08 01:44:00,53.0,52.2,29.74,NNE,15,0.0,0.0,97,0.00,,,0.10,Wunderground v.1.15,2013-06-08 05:44:00,
2013-06-08 01:49:00,53.0,52.2,29.74,NNE,15,0.0,0.0,97,0.04,,,0.11,Wunderground v.1.15,2013-06-08 05:49:00,
2013-06-08 01:55:00,53.0,52.2,29.74,NNE,15,0.0,0.0,97,0.04,,,0.11,Wunderground v.1.15,2013-06-08 05:55:00,
2013-06-08 02:00:00,53.0,52.2,29.73,NNE,15,0.0,0.0,97,0.04,,,0.11,Wunderground v.1.15,2013-06-08 06:00:00,
2013-06-08 02:05:00,52.9,52.1,29.73,NNE,15,0.0,2.0,97,0.00,,,0.12,Wunderground v.1.15,2013-06-08 06:05:00,
2013-06-08 02:10:00,52.8,52.0,29.73,NNE,15,0.0,0.0,97,0.00,,,0.12,Wunderground v.1.15,2013-06-08 06:10:00,
2013-06-08 02:15:00,52.7,51.9,29.73,NE,37,0.0,2.0,97,0.00,,,0.12,Wunderground v.1.15,2013-06-08 06:15:00,
2013-06-08 02:21:00,52.7,51.9,29.73,NNW,346,0.0,2.0,97,0.04,,,0.13,Wunderground v.1.15,2013-06-08 06:21:00,
2013-06-08 02:26:00,52.6,51.8,29.73,NNE,29,1.0,3.0,97,0.04,,,0.13,Wunderground v.1.15,2013-06-08 06:26:00,
2013-06-08 02:31:00,52.5,51.7,29.73,NNW,346,1.0,4.0,97,0.04,,,0.13,Wunderground v.1.15,2013-06-08 06:31:00,
2013-06-08 02:36:00,52.5,51.7,29.73,NE,47,0.0,4.0,97,0.04,,,0.14,Wunderground v.1.15,2013-06-08 06:36:00,
2013-06-08 02:41:00,52.5,51.7,29.73,NNE,25,0.0,2.0,97,0.04,,,0.14,Wunderground v.1.15,2013-06-08 06:41:00,
2013-06-08 02:46:00,52.5,51.7,29.73,North,360,1.0,2.0,97,0.04,,,0.14,Wunderground v.1.15,2013-06-08 06:46:00,
2013-06-08 02:51:00,52.5,51.7,29.73,NNE,30,0.0,2.0,97,0.04,,,0.15,Wunderground v.1.15,2013-06-08 06:51:00,
2013-06-08 02:57:00,52.5,51.7,29.73,NNE,12,0.0,2.0,97,0.04,,,0.15,Wunderground v.1.15,2013-06-08 06:57:00,
2013-06-08 03:02:00,52.4,51.6,29.73,NNE,19,0.0,1.0,97,0.04,,,0.15,Wunderground v.1.15,2013-06-08 07:02:00,
2013-06-08 03:07:00,52.4,51.6,29.72,North,349,0.0,3.0,97,0.04,,,0.15,Wunderground v.1.15,2013-06-08 07:07:00,
2013-06-08 03:12:00,52.3,51.5,29.72,NE,48,0.0,2.0,97,0.04,,,0.16,Wunderground v.1.15,2013-06-08 07:12:00,
2013-06-08 03:17:00,52.3,51.5,29.72,ENE,61,1.0,4.0,97,0.04,,,0.16,Wunderground v.1.15,2013-06-08 07:17:00,
2013-06-08 03:22:00,52.2,51.4,29.73,NE,34,1.0,1.0,97,0.04,,,0.17,Wunderground v.1.15,2013-06-08 07:22:00,
2013-06-08 03:27:00,52.1,51.3,29.72,North,355,0.0,1.0,97,0.04,,,0.17,Wunderground v.1.15,2013-06-08 07:27:00,
2013-06-08 03:33:00,52.0,51.2,29.72,NE,37,0.0,1.0,97,0.04,,,0.17,Wunderground v.1.15,2013-06-08 07:33:00,
2013-06-08 03:38:00,51.9,51.1,29.72,NW,325,1.0,1.0,97,0.04,,,0.17,Wunderground v.1.15,2013-06-08 07:38:00,
2013-06-08 03:43:00,51.9,51.1,29.72,NE,49,0.0,1.0,97,0.00,,,0.18,Wunderground v.1.15,2013-06-08 07:43:00,
2013-06-08 03:48:00,51.8,51.0,29.72,NNE,20,1.0,1.0,97,0.00,,,0.18,Wunderground v.1.15,2013-06-08 07:48:00,
2013-06-08 03:53:00,51.7,50.9,29.72,NNE,23,2.0,2.0,97,0.00,,,0.18,Wunderground v.1.15,2013-06-08 07:53:00,
2013-06-08 03:58:00,51.6,50.8,29.72,East,90,0.0,2.0,97,0.04,,,0.19,Wunderground v.1.15,2013-06-08 07:58:00,
2013-06-08 04:03:00,51.5,50.7,29.71,North,5,0.0,2.0,97,0.04,,,0.19,Wunderground v.1.15,2013-06-08 08:03:00,
2013-06-08 04:08:00,51.4,50.6,29.71,East,87,0.0,3.0,97,0.04,,,0.19,Wunderground v.1.15,2013-06-08 08:08:00,
2013-06-08 04:13:00,51.4,50.6,29.72,NE,45,1.0,1.0,97,0.00,,,0.20,Wunderground v.1.15,2013-06-08 08:13:00,
2013-06-08 04:18:00,51.4,50.6,29.71,NNE,24,1.0,1.0,97,0.00,,,0.20,Wunderground v.1.15,2013-06-08 08:18:00,
2013-06-08 04:23:00,51.3,50.5,29.71,NNE,17,0.0,2.0,97,0.00,,,0.20,Wunderground v.1.15,2013-06-08 08:23:00,
2013-06-08 04:28:00,51.3,50.5,29.71,NNE,15,0.0,3.0,97,0.04,,,0.21,Wunderground v.1.15,2013-06-08 08:28:00,
2013-06-08 04:34:00,51.3,50.5,29.70,North,5,0.0,2.0,97,0.04,,,0.21,Wunderground v.1.15,2013-06-08 08:34:00,
2013-06-08 04:39:00,51.3,50.5,29.70,NNE,17,0.0,2.0,97,0.04,,,0.21,Wunderground v.1.15,2013-06-08 08:39:00,
2013-06-08 04:44:00,51.3,50.5,29.70,ENE,63,1.0,2.0,97,0.04,,,0.21,Wunderground v.1.15,2013-06-08 08:44:00,
2013-06-08 04:49:00,51.2,50.4,29.70,SSW,206,1.0,2.0,97,0.00,,,0.22,Wunderground v.1.15,2013-06-08 08:49:00,
2013-06-08 04:54:00,51.3,50.5,29.71,East,83,0.0,3.0,97,0.00,,,0.22,Wunderground v.1.15,2013-06-08 08:54:00,
2013-06-08 04:59:00,51.3,50.5,29.71,NNE,20,0.0,3.0,97,0.00,,,0.22,Wunderground v.1.15,2013-06-08 08:59:00,
2013-06-08 05:04:00,51.3,50.5,29.71,NNE,29,2.0,2.0,97,0.04,,,0.23,Wunderground v.1.15,2013-06-08 09:04:00,
2013-06-08 05:09:00,51.3,50.5,29.71,NNW,327,2.0,3.0,97,0.04,,,0.23,Wunderground v.1.15,2013-06-08 09:09:00,
2013-06-08 05:15:00,51.2,50.4,29.72,WSW,244,0.0,2.0,97,0.04,,,0.23,Wunderground v.1.15,2013-06-08 09:15:00,
2013-06-08 05:20:00,51.2,50.4,29.72,NE,35,0.0,0.0,97,0.00,,,0.24,Wunderground v.1.15,2013-06-08 09:20:00,
2013-06-08 05:25:00,51.3,50.5,29.72,NE,35,0.0,1.0,97,0.00,,,0.24,Wunderground v.1.15,2013-06-08 09:25:00,
2013-06-08 05:30:00,51.3,50.8,29.72,ESE,110,0.0,0.0,98,0.00,,,0.24,Wunderground v.1.15,2013-06-08 09:30:00,
2013-06-08 05:35:00,51.3,50.8,29.72,ESE,110,0.0,0.0,98,0.04,,,0.25,Wunderground v.1.15,2013-06-08 09:35:00,
2013-06-08 05:41:00,51.3,50.8,29.72,NE,53,0.0,1.0,98,0.04,,,0.25,Wunderground v.1.15,2013-06-08 09:41:00,
2013-06-08 05:46:00,51.4,50.9,29.72,NE,40,0.0,1.0,98,0.04,,,0.25,Wunderground v.1.15,2013-06-08 09:46:00,
2013-06-08 05:51:00,51.4,50.9,29.72,NNW,348,0.0,0.0,98,0.00,,,0.25,Wunderground v.1.15,2013-06-08 09:51:00,
2013-06-08 05:56:00,51.4,50.9,29.72,NNW,348,0.0,0.0,98,0.00,,,0.26,Wunderground v.1.15,2013-06-08 09:56:00,
2013-06-08 06:01:00,51.4,50.9,29.73,North,355,0.0,0.0,98,0.00,,,0.26,Wunderground v.1.15,2013-06-08 10:01:00,
2013-06-08 06:06:00,51.5,51.0,29.73,NE,38,0.0,2.0,98,0.04,,,0.27,Wunderground v.1.15,2013-06-08 10:06:00,
2013-06-08 06:11:00,51.4,50.9,29.73,East,79,0.0,2.0,98,0.04,,,0.27,Wunderground v.1.15,2013-06-08 10:11:00,
2013-06-08 06:16:00,51.5,51.0,29.73,WNW,298,0.0,3.0,98,0.04,,,0.27,Wunderground v.1.15,2013-06-08 10:16:00,
2013-06-08 06:21:00,51.5,51.0,29.73,NE,34,3.0,3.0,98,0.04,,,0.28,Wunderground v.1.15,2013-06-08 10:21:00,
2013-06-08 06:27:00,51.5,51.0,29.73,NNE,25,0.0,3.0,98,0.04,,,0.28,Wunderground v.1.15,2013-06-08 10:27:00,
2013-06-08 06:32:00,51.5,51.0,29.74,NE,40,0.0,0.0,98,0.04,,,0.28,Wunderground v.1.15,2013-06-08 10:32:00,
2013-06-08 06:37:00,51.5,51.0,29.74,NE,40,0.0,0.0,98,0.04,,,0.29,Wunderground v.1.15,2013-06-08 10:37:00,
2013-06-08 06:42:00,51.5,51.0,29.75,WNW,302,0.0,2.0,98,0.04,,,0.29,Wunderground v.1.15,2013-06-08 10:42:00,
2013-06-08 06:47:00,51.5,51.0,29.75,West,277,0.0,4.0,98,0.04,,,0.29,Wunderground v.1.15,2013-06-08 10:47:00,
2013-06-08 06:52:00,51.6,51.1,29.75,West,277,0.0,0.0,98,0.00,,,0.29,Wunderground v.1.15,2013-06-08 10:52:00,
2013-06-08 06:58:00,51.7,51.2,29.75,NNW,346,0.0,1.0,98,0.00,,,0.30,Wunderground v.1.15,2013-06-08 10:58:00,
2013-06-08 07:03:00,51.7,51.2,29.75,NNW,346,0.0,0.0,98,0.00,,,0.30,Wunderground v.1.15,2013-06-08 11:03:00,
2013-06-08 07:08:00,51.8,51.3,29.76,NNW,347,1.0,1.0,98,0.04,,,0.31,Wunderground v.1.15,2013-06-08 11:08:00,
2013-06-08 07:13:00,51.9,51.4,29.76,NNE,24,0.0,0.0,98,0.04,,,0.31,Wunderground v.1.15,2013-06-08 11:13:00,
2013-06-08 07:18:00,52.1,51.6,29.76,NNE,28,0.0,2.0,98,0.04,,,0.31,Wunderground v.1.15,2013-06-08 11:18:00,
2013-06-08 07:24:00,52.1,51.6,29.76,NNE,28,0.0,0.0,98,0.04,,,0.31,Wunderground v.1.15,2013-06-08 11:24:00,
2013-06-08 07:29:00,52.2,51.7,29.76,NW,319,0.0,3.0,98,0.00,,,0.32,Wunderground v.1.15,2013-06-08 11:29:00,
2013-06-08 07:34:00,52.3,51.8,29.76,NW,319,0.0,0.0,98,0.00,,,0.32,Wunderground v.1.15,2013-06-08 11:34:00,
2013-06-08 07:39:00,52.5,52.0,29.76,East,79,1.0,2.0,98,0.00,,,0.32,Wunderground v.1.15,2013-06-08 11:39:00,
2013-06-08 07:44:00,52.6,52.1,29.77,North,355,0.0,2.0,98,0.04,,,0.33,Wunderground v.1.15,2013-06-08 11:44:00,
2013-06-08 07:49:00,52.7,52.2,29.77,NE,34,0.0,3.0,98,0.04,,,0.33,Wunderground v.1.15,2013-06-08 11:49:00,
2013-06-08 07:55:00,52.6,52.1,29.78,NNE,27,0.0,5.0,98,0.04,,,0.33,Wunderground v.1.15,2013-06-08 11:55:00,
2013-06-08 08:00:00,52.6,52.1,29.78,NW,305,1.0,1.0,98,0.00,,,0.33,Wunderground v.1.15,2013-06-08 12:00:00,
2013-06-08 08:05:00,52.6,52.1,29.78,ESE,107,1.0,2.0,98,0.00,,,0.34,Wunderground v.1.15,2013-06-08 12:05:00,
2013-06-08 08:10:00,52.7,52.2,29.78,North,360,0.0,1.0,98,0.00,,,0.34,Wunderground v.1.15,2013-06-08 12:10:00,
2013-06-08 08:15:00,52.8,52.3,29.79,NNE,25,0.0,3.0,98,0.00,,,0.34,Wunderground v.1.15,2013-06-08 12:15:00,
2013-06-08 08:20:00,53.0,52.5,29.79,East,99,1.0,1.0,98,0.04,,,0.35,Wunderground v.1.15,2013-06-08 12:20:00,
2013-06-08 08:25:00,53.1,52.6,29.79,East,82,1.0,3.0,98,0.04,,,0.35,Wunderground v.1.15,2013-06-08 12:25:00,
2013-06-08 08:31:00,53.1,52.6,29.79,NW,312,0.0,1.0,98,0.04,,,0.35,Wunderground v.1.15,2013-06-08 12:31:00,
2013-06-08 08:36:00,53.2,52.7,29.80,South,178,3.0,3.0,98,0.00,,,0.35,Wunderground v.1.15,2013-06-08 12:36:00,
2013-06-08 08:41:00,53.2,52.7,29.80,ENE,62,0.0,3.0,98,0.00,,,0.36,Wunderground v.1.15,2013-06-08 12:41:00,
2013-06-08 08:47:00,53.2,52.7,29.80,WSW,254,0.0,3.0,98,0.00,,,0.36,Wunderground v.1.15,2013-06-08 12:47:00,
2013-06-08 08:52:00,53.3,52.8,29.81,West,271,0.0,1.0,98,0.00,,,0.36,Wunderground v.1.15,2013-06-08 12:52:00,
2013-06-08 08:57:00,53.5,52.9,29.82,SW,221,2.0,4.0,98,0.04,,,0.37,Wunderground v.1.15,2013-06-08 12:57:00,
2013-06-08 09:02:00,53.5,52.9,29.82,SW,231,0.0,1.0,98,0.04,,,0.37,Wunderground v.1.15,2013-06-08 13:02:00,
2013-06-08 09:07:00,53.6,53.0,29.82,WSW,252,1.0,3.0,98,0.04,,,0.37,Wunderground v.1.15,2013-06-08 13:07:00,
2013-06-08 09:12:00,53.7,53.1,29.82,NW,311,0.0,4.0,98,0.00,,,0.37,Wunderground v.1.15,2013-06-08 13:12:00,
2013-06-08 09:17:00,53.7,53.1,29.82,SE,134,1.0,4.0,98,0.00,,,0.38,Wunderground v.1.15,2013-06-08 13:17:00,
2013-06-08 09:22:00,54.0,53.4,29.82,NE,53,0.0,2.0,98,0.00,,,0.38,Wunderground v.1.15,2013-06-08 13:22:00,
2013-06-08 09:27:00,54.1,53.5,29.82,NNE,28,0.0,2.0,98,0.00,,,0.38,Wunderground v.1.15,2013-06-08 13:27:00,
2013-06-08 09:32:00,54.2,53.6,29.82,North,360,0.0,4.0,98,0.00,,,0.39,Wunderground v.1.15,2013-06-08 13:32:00,
2013-06-08 09:38:00,54.5,53.9,29.82,West,265,0.0,4.0,98,0.00,,,0.39,Wunderground v.1.15,2013-06-08 13:38:00,
2013-06-08 09:43:00,54.5,53.9,29.82,NNE,27,0.0,3.0,98,0.00,,,0.39,Wunderground v.1.15,2013-06-08 13:43:00,
2013-06-08 09:48:00,54.6,54.0,29.83,WSW,245,3.0,3.0,98,0.00,,,0.39,Wunderground v.1.15,2013-06-08 13:48:00,
2013-06-08 09:53:00,54.6,54.0,29.83,West,276,0.0,1.0,98,0.00,,,0.40,Wunderground v.1.15,2013-06-08 13:53:00,
2013-06-08 09:58:00,54.8,54.2,29.83,SSW,200,0.0,4.0,98,0.00,,,0.40,Wunderground v.1.15,2013-06-08 13:58:00,
2013-06-08 10:03:00,55.0,54.4,29.83,SW,223,3.0,3.0,98,0.00,,,0.40,Wunderground v.1.15,2013-06-08 14:03:00,
2013-06-08 10:08:00,55.1,54.5,29.83,WSW,251,0.0,3.0,98,0.00,,,0.41,Wunderground v.1.15,2013-06-08 14:08:00,
2013-06-08 10:14:00,55.2,54.6,29.83,NW,310,0.0,2.0,98,0.00,,,0.41,Wunderground v.1.15,2013-06-08 14:14:00,
2013-06-08 10:19:00,55.5,54.9,29.84,WNW,286,0.0,2.0,98,0.00,,,0.41,Wunderground v.1.15,2013-06-08 14:19:00,
2013-06-08 10:24:00,55.5,54.9,29.84,East,88,0.0,2.0,98,0.00,,,0.41,Wunderground v.1.15,2013-06-08 14:24:00,
2013-06-08 10:29:00,55.6,55.0,29.84,East,90,1.0,2.0,98,0.00,,,0.42,Wunderground v.1.15,2013-06-08 14:29:00,
2013-06-08 10:34:00,55.8,55.2,29.84,SSE,163,1.0,1.0,98,0.00,,,0.42,Wunderground v.1.15,2013-06-08 14:34:00,
2013-06-08 10:39:00,55.9,55.3,29.85,SSE,163,0.0,1.0,98,0.00,,,0.42,Wunderground v.1.15,2013-06-08 14:39:00,
2013-06-08 10:44:00,55.9,55.3,29.85,NE,48,0.0,1.0,98,0.00,,,0.42,Wunderground v.1.15,2013-06-08 14:44:00,
2013-06-08 10:49:00,56.1,55.5,29.85,NE,48,0.0,1.0,98,0.00,,,0.43,Wunderground v.1.15,2013-06-08 14:49:00,
2013-06-08 10:55:00,56.0,55.4,29.85,SSW,210,0.0,4.0,98,0.00,,,0.43,Wunderground v.1.15,2013-06-08 14:55:00,
2013-06-08 11:00:00,56.3,55.7,29.86,WSW,237,0.0,0.0,98,0.00,,,0.43,Wunderground v.1.15,2013-06-08 15:00:00,
2013-06-08 11:05:00,56.6,56.0,29.86,SW,221,1.0,2.0,98,0.00,,,0.43,Wunderground v.1.15,2013-06-08 15:05:00,
2013-06-08 11:10:00,56.6,56.0,29.86,NNE,30,3.0,3.0,98,0.00,,,0.44,Wunderground v.1.15,2013-06-08 15:10:00,
2013-06-08 11:15:00,56.7,56.1,29.86,NNW,348,1.0,3.0,98,0.00,,,0.44,Wunderground v.1.15,2013-06-08 15:15:00,
2013-06-08 11:20:00,56.8,56.2,29.86,NNW,348,0.0,0.0,98,0.00,,,0.44,Wunderground v.1.15,2013-06-08 15:20:00,
2013-06-08 11:25:00,57.0,56.4,29.86,WSW,249,0.0,2.0,98,0.00,,,0.44,Wunderground v.1.15,2013-06-08 15:25:00,
2013-06-08 11:30:00,57.2,56.6,29.86,WSW,248,0.0,1.0,98,0.00,,,0.44,Wunderground v.1.15,2013-06-08 15:30:00,
2013-06-08 11:36:00,57.4,56.8,29.86,WSW,249,0.0,2.0,98,0.00,,,0.45,Wunderground v.1.15,2013-06-08 15:36:00,
2013-06-08 11:41:00,57.5,56.9,29.86,West,265,0.0,2.0,98,0.00,,,0.45,Wunderground v.1.15,2013-06-08 15:41:00,
2013-06-08 11:47:00,57.7,57.1,29.86,West,265,0.0,2.0,98,0.00,,,0.45,Wunderground v.1.15,2013-06-08 15:47:00,
2013-06-08 11:52:00,57.9,57.3,29.87,WSW,250,1.0,2.0,98,0.00,,,0.45,Wunderground v.1.15,2013-06-08 15:52:00,
2013-06-08 11:57:00,58.0,57.4,29.87,West,266,1.0,2.0,98,0.00,,,0.46,Wunderground v.1.15,2013-06-08 15:57:00,
2013-06-08 12:02:00,58.1,57.5,29.87,SW,236,1.0,1.0,98,0.00,,,0.46,Wunderground v.1.15,2013-06-08 16:02:00,
2013-06-08 12:07:00,58.1,57.3,29.87,West,266,1.0,3.0,97,0.00,,,0.46,Wunderground v.1.15,2013-06-08 16:07:00,
2013-06-08 12:12:00,58.3,57.7,29.88,West,263,0.0,3.0,98,0.00,,,0.46,Wunderground v.1.15,2013-06-08 16:12:00,
2013-06-08 12:17:00,58.4,57.8,29.88,West,262,2.0,3.0,98,0.00,,,0.46,Wunderground v.1.15,2013-06-08 16:17:00,
2013-06-08 12:23:00,58.5,57.7,29.88,NW,323,0.0,2.0,97,0.00,,,0.47,Wunderground v.1.15,2013-06-08 16:23:00,
2013-06-08 12:28:00,58.6,57.8,29.89,South,190,1.0,2.0,97,0.00,,,0.47,Wunderground v.1.15,2013-06-08 16:28:00,
2013-06-08 12:33:00,58.6,57.8,29.88,South,190,0.0,1.0,97,0.00,,,0.47,Wunderground v.1.15,2013-06-08 16:33:00,
2013-06-08 12:38:00,58.7,57.9,29.88,South,190,0.0,1.0,97,0.00,,,0.47,Wunderground v.1.15,2013-06-08 16:38:00,
2013-06-08 12:43:00,58.9,58.1,29.88,SW,236,0.0,1.0,97,0.00,,,0.47,Wunderground v.1.15,2013-06-08 16:43:00,
2013-06-08 12:48:00,59.1,58.2,29.88,SSE,161,0.0,4.0,97,0.00,,,0.48,Wunderground v.1.15,2013-06-08 16:48:00,
2013-06-08 12:53:00,59.1,58.2,29.89,West,264,0.0,1.0,97,0.00,,,0.48,Wunderground v.1.15,2013-06-08 16:53:00,
2013-06-08 12:58:00,59.2,58.3,29.89,SW,234,0.0,2.0,97,0.00,,,0.48,Wunderground v.1.15,2013-06-08 16:58:00,
2013-06-08 13:04:00,59.0,57.9,29.89,SW,221,0.0,2.0,96,0.00,,,0.48,Wunderground v.1.15,2013-06-08 17:04:00,
2013-06-08 13:09:00,59.0,57.9,29.89,SW,225,0.0,2.0,96,0.00,,,0.48,Wunderground v.1.15,2013-06-08 17:09:00,
2013-06-08 13:14:00,59.3,58.4,29.89,SW,231,1.0,3.0,97,0.00,,,0.49,Wunderground v.1.15,2013-06-08 17:14:00,
2013-06-08 13:19:00,59.6,58.7,29.88,SW,236,2.0,3.0,97,0.00,,,0.49,Wunderground v.1.15,2013-06-08 17:19:00,
2013-06-08 13:24:00,59.8,58.7,29.88,SSE,159,0.0,3.0,96,0.00,,,0.49,Wunderground v.1.15,2013-06-08 17:24:00,
2013-06-08 13:30:00,59.9,58.8,29.89,SW,224,0.0,1.0,96,0.00,,,0.49,Wunderground v.1.15,2013-06-08 17:30:00,
2013-06-08 13:35:00,59.9,58.8,29.88,West,273,2.0,4.0,96,0.00,,,0.49,Wunderground v.1.15,2013-06-08 17:35:00,
2013-06-08 13:40:00,60.2,59.1,29.88,NW,310,0.0,1.0,96,0.00,,,0.49,Wunderground v.1.15,2013-06-08 17:40:00,
2013-06-08 13:45:00,60.3,58.9,29.88,West,278,0.0,5.0,95,0.00,,,0.50,Wunderground v.1.15,2013-06-08 17:45:00,
2013-06-08 13:50:00,60.7,59.3,29.89,WNW,290,0.0,1.0,95,0.00,,,0.50,Wunderground v.1.15,2013-06-08 17:50:00,
2013-06-08 13:55:00,60.9,59.2,29.89,West,275,0.0,5.0,94,0.00,,,0.50,Wunderground v.1.15,2013-06-08 17:55:00,
2013-06-08 14:01:00,61.1,59.1,29.89,WSW,257,3.0,3.0,93,0.00,,,0.50,Wunderground v.1.15,2013-06-08 18:01:00,
2013-06-08 14:06:00,61.2,59.2,29.89,SSW,209,2.0,3.0,93,0.00,,,0.50,Wunderground v.1.15,2013-06-08 18:06:00,
2013-06-08 14:11:00,61.4,59.4,29.90,WSW,249,0.0,2.0,93,0.00,,,0.51,Wunderground v.1.15,2013-06-08 18:11:00,
2013-06-08 14:16:00,61.6,59.6,29.89,SSW,203,2.0,3.0,93,0.00,,,0.51,Wunderground v.1.15,2013-06-08 18:16:00,
2013-06-08 14:21:00,61.8,59.5,29.89,North,355,1.0,2.0,92,0.00,,,0.51,Wunderground v.1.15,2013-06-08 18:21:00,
2013-06-08 14:26:00,61.9,59.9,29.89,WNW,290,1.0,2.0,93,0.00,,,0.51,Wunderground v.1.15,2013-06-08 18:26:00,
2013-06-08 14:32:00,61.9,59.9,29.90,West,273,0.0,2.0,93,0.00,,,0.51,Wunderground v.1.15,2013-06-08 18:32:00,
2013-06-08 14:37:00,62.0,59.6,29.90,East,97,0.0,3.0,92,0.00,,,0.51,Wunderground v.1.15,2013-06-08 18:37:00,
2013-06-08 14:42:00,62.2,59.8,29.89,WNW,283,0.0,2.0,92,0.00,,,0.01,Wunderground v.1.15,2013-06-08 18:42:00,
2013-06-08 14:47:00,62.3,59.9,29.90,East,94,1.0,3.0,92,0.00,,,0.01,Wunderground v.1.15,2013-06-08 18:47:00,
2013-06-08 14:52:00,62.4,59.7,29.90,NW,307,0.0,2.0,91,0.00,,,0.01,Wunderground v.1.15,2013-06-08 18:52:00,
2013-06-08 14:57:00,62.6,59.3,29.90,SSW,211,1.0,5.0,89,0.00,,,0.01,Wunderground v.1.15,2013-06-08 18:57:00,
2013-06-08 15:03:00,62.8,59.8,29.89,South,180,3.0,3.0,90,0.00,,,0.01,Wunderground v.1.15,2013-06-08 19:03:00,
2013-06-08 15:08:00,63.1,60.1,29.90,WSW,252,0.0,7.0,90,0.00,,,0.01,Wunderground v.1.15,2013-06-08 19:08:00,
2013-06-08 15:13:00,63.6,60.0,29.90,WNW,285,0.0,3.0,88,0.00,,,0.02,Wunderground v.1.15,2013-06-08 19:13:00,
2013-06-08 15:18:00,64.0,60.4,29.90,WNW,288,1.0,4.0,88,0.00,,,0.02,Wunderground v.1.15,2013-06-08 19:18:00,
2013-06-08 15:23:00,64.1,60.2,29.90,WNW,288,0.0,2.0,87,0.00,,,0.02,Wunderground v.1.15,2013-06-08 19:23:00,
2013-06-08 15:28:00,64.0,60.7,29.91,East,94,1.0,2.0,89,0.00,,,0.02,Wunderground v.1.15,2013-06-08 19:28:00,
2013-06-08 15:33:00,63.7,59.8,29.91,SSE,157,2.0,3.0,87,0.00,,,0.02,Wunderground v.1.15,2013-06-08 19:33:00,
2013-06-08 15:38:00,63.6,60.3,29.91,WSW,244,3.0,4.0,89,0.00,,,0.02,Wunderground v.1.15,2013-06-08 19:38:00,
2013-06-08 15:43:00,63.6,60.3,29.91,NNW,328,2.0,3.0,89,0.00,,,0.02,Wunderground v.1.15,2013-06-08 19:43:00,
2013-06-08 15:49:00,63.4,59.5,29.92,WSW,252,6.0,6.0,87,0.00,,,0.02,Wunderground v.1.15,2013-06-08 19:49:00,
2013-06-08 15:54:00,63.2,59.3,29.91,East,90,1.0,5.0,87,0.00,,,0.03,Wunderground v.1.15,2013-06-08 19:54:00,
2013-06-08 15:59:00,63.2,59.6,29.91,West,272,1.0,5.0,88,0.00,,,0.03,Wunderground v.1.15,2013-06-08 19:59:00,
2013-06-08 16:04:00,63.1,59.2,29.92,West,259,2.0,4.0,87,0.00,,,0.03,Wunderground v.1.15,2013-06-08 20:04:00,
2013-06-08 16:09:00,63.2,59.3,29.92,WNW,298,2.0,4.0,87,0.00,,,0.03,Wunderground v.1.15,2013-06-08 20:09:00,
2013-06-08 16:15:00,63.4,59.5,29.93,SSW,205,0.0,4.0,87,0.00,,,0.03,Wunderground v.1.15,2013-06-08 20:15:00,
2013-06-08 16:20:00,63.4,59.5,29.92,WSW,239,2.0,2.0,87,0.00,,,0.03,Wunderground v.1.15,2013-06-08 20:20:00,
2013-06-08 16:25:00,63.5,59.6,29.92,North,9,1.0,3.0,87,0.00,,,0.03,Wunderground v.1.15,2013-06-08 20:25:00,
2013-06-08 16:30:00,63.5,59.9,29.92,South,191,1.0,1.0,88,0.00,,,0.03,Wunderground v.1.15,2013-06-08 20:30:00,
2013-06-08 16:35:00,63.4,59.5,29.92,SW,217,1.0,5.0,87,0.00,,,0.04,Wunderground v.1.15,2013-06-08 20:35:00,
2013-06-08 16:40:00,63.3,59.7,29.93,WSW,244,1.0,1.0,88,0.00,,,0.04,Wunderground v.1.15,2013-06-08 20:40:00,
2013-06-08 16:45:00,63.2,59.6,29.93,WSW,252,0.0,4.0,88,0.00,,,0.04,Wunderground v.1.15,2013-06-08 20:45:00,
2013-06-08 16:50:00,63.2,59.9,29.93,WSW,242,2.0,2.0,89,0.00,,,0.04,Wunderground v.1.15,2013-06-08 20:50:00,
2013-06-08 16:55:00,63.1,59.8,29.94,WNW,290,0.0,4.0,89,0.00,,,0.04,Wunderground v.1.15,2013-06-08 20:55:00,
2013-06-08 17:00:00,63.0,59.4,29.94,West,263,0.0,2.0,88,0.00,,,0.04,Wunderground v.1.15,2013-06-08 21:00:00,
2013-06-08 17:05:00,63.0,59.4,29.94,West,274,1.0,5.0,88,0.00,,,0.04,Wunderground v.1.15,2013-06-08 21:05:00,
2013-06-08 17:10:00,62.9,59.3,29.94,West,259,0.0,1.0,88,0.00,,,0.04,Wunderground v.1.15,2013-06-08 21:10:00,
2013-06-08 17:15:00,62.7,59.7,29.94,West,274,3.0,3.0,90,0.00,,,0.04,Wunderground v.1.15,2013-06-08 21:15:00,
2013-06-08 17:21:00,62.6,59.6,29.94,SSW,194,0.0,1.0,90,0.00,,,0.04,Wunderground v.1.15,2013-06-08 21:21:00,
2013-06-08 17:26:00,62.3,59.3,29.95,WSW,254,2.0,3.0,90,0.00,,,0.04,Wunderground v.1.15,2013-06-08 21:26:00,
2013-06-08 17:32:00,62.0,58.7,29.96,ESE,116,0.0,4.0,89,0.00,,,0.04,Wunderground v.1.15,2013-06-08 21:32:00,
2013-06-08 17:37:00,61.8,58.5,29.95,NE,44,0.0,4.0,89,0.00,,,0.04,Wunderground v.1.15,2013-06-08 21:37:00,
2013-06-08 17:42:00,61.7,58.4,29.95,WSW,243,0.0,3.0,89,0.00,,,0.04,Wunderground v.1.15,2013-06-08 21:42:00,
2013-06-08 17:47:00,61.7,58.4,29.94,NW,323,1.0,3.0,89,0.00,,,0.04,Wunderground v.1.15,2013-06-08 21:47:00,
2013-06-08 17:52:00,61.8,58.5,29.95,West,273,1.0,3.0,89,0.00,,,0.04,Wunderground v.1.15,2013-06-08 21:52:00,
2013-06-08 17:57:00,61.8,58.8,29.95,West,273,0.0,3.0,90,0.00,,,0.04,Wunderground v.1.15,2013-06-08 21:57:00,
2013-06-08 18:03:00,61.7,58.7,29.95,West,268,0.0,1.0,90,0.00,,,0.04,Wunderground v.1.15,2013-06-08 22:03:00,
2013-06-08 18:08:00,61.6,58.6,29.95,WNW,286,0.0,1.0,90,0.00,,,0.04,Wunderground v.1.15,2013-06-08 22:08:00,
2013-06-08 18:13:00,61.6,58.9,29.95,SW,216,0.0,0.0,91,0.00,,,0.04,Wunderground v.1.15,2013-06-08 22:13:00,
2013-06-08 18:18:00,61.4,58.7,29.95,NW,315,0.0,3.0,91,0.00,,,0.04,Wunderground v.1.15,2013-06-08 22:18:00,
2013-06-08 18:23:00,61.3,58.7,29.95,ENE,61,0.0,1.0,91,0.00,,,0.04,Wunderground v.1.15,2013-06-08 22:23:00,
2013-06-08 18:28:00,61.3,58.7,29.95,ENE,61,0.0,1.0,91,0.00,,,0.04,Wunderground v.1.15,2013-06-08 22:28:00,
2013-06-08 18:33:00,61.2,58.6,29.96,ENE,61,0.0,1.0,91,0.00,,,0.04,Wunderground v.1.15,2013-06-08 22:33:00,
2013-06-08 18:38:00,61.1,58.5,29.96,WSW,246,0.0,2.0,91,0.00,,,0.04,Wunderground v.1.15,2013-06-08 22:38:00,
2013-06-08 18:44:00,61.1,58.5,29.96,WSW,246,0.0,1.0,91,0.00,,,0.04,Wunderground v.1.15,2013-06-08 22:44:00,
2013-06-08 18:49:00,61.2,58.6,29.96,WSW,242,0.0,1.0,91,0.00,,,0.04,Wunderground v.1.15,2013-06-08 22:49:00,
2013-06-08 18:54:00,61.3,58.7,29.96,WSW,242,0.0,1.0,91,0.00,,,0.04,Wunderground v.1.15,2013-06-08 22:54:00,
2013-06-08 18:59:00,61.4,58.7,29.96,WSW,248,1.0,3.0,91,0.00,,,0.04,Wunderground v.1.15,2013-06-08 22:59:00,
2013-06-08 19:04:00,61.5,58.5,29.96,WSW,248,0.0,0.0,90,0.00,,,0.04,Wunderground v.1.15,2013-06-08 23:04:00,
2013-06-08 19:09:00,61.5,58.8,29.96,WSW,248,0.0,1.0,91,0.00,,,0.04,Wunderground v.1.15,2013-06-08 23:09:00,
2013-06-08 19:14:00,61.5,58.8,29.96,WSW,248,0.0,0.0,91,0.00,,,0.04,Wunderground v.1.15,2013-06-08 23:14:00,
2013-06-08 19:20:00,61.4,58.7,29.97,SSW,198,1.0,1.0,91,0.00,,,0.04,Wunderground v.1.15,2013-06-08 23:20:00,
2013-06-08 19:25:00,61.3,58.7,29.97,SSW,198,0.0,1.0,91,0.00,,,0.04,Wunderground v.1.15,2013-06-08 23:25:00,
2013-06-08 19:30:00,61.3,58.7,29.98,SSW,213,0.0,1.0,91,0.00,,,0.04,Wunderground v.1.15,2013-06-08 23:30:00,
2013-06-08 19:35:00,61.3,58.7,29.98,SSW,212,0.0,1.0,91,0.00,,,0.04,Wunderground v.1.15,2013-06-08 23:35:00,
2013-06-08 19:40:00,61.3,58.7,29.98,WSW,244,0.0,0.0,91,0.00,,,0.04,Wunderground v.1.15,2013-06-08 23:40:00,
2013-06-08 19:46:00,61.1,58.5,29.99,SW,218,0.0,1.0,91,0.00,,,0.04,Wunderground v.1.15,2013-06-08 23:46:00,
2013-06-08 19:51:00,61.0,58.4,29.99,South,171,0.0,1.0,91,0.00,,,0.04,Wunderground v.1.15,2013-06-08 23:51:00,
2013-06-08 19:56:00,60.9,58.6,29.99,South,171,0.0,1.0,92,0.00,,,0.04,Wunderground v.1.15,2013-06-08 23:56:00,
2013-06-08 20:02:00,60.8,58.5,29.98,South,171,0.0,0.0,92,0.00,,,0.04,Wunderground v.1.15,2013-06-09 00:02:00,
2013-06-08 20:07:00,60.7,58.4,29.98,South,171,0.0,0.0,92,0.00,,,0.04,Wunderground v.1.15,2013-06-09 00:07:00,
2013-06-08 20:12:00,60.6,58.6,29.98,South,171,0.0,0.0,93,0.00,,,0.04,Wunderground v.1.15,2013-06-09 00:12:00,
2013-06-08 20:17:00,60.5,58.5,29.98,South,171,0.0,0.0,93,0.00,,,0.04,Wunderground v.1.15,2013-06-09 00:17:00,
2013-06-08 20:22:00,60.4,58.4,29.98,South,171,0.0,0.0,93,0.00,,,0.04,Wunderground v.1.15,2013-06-09 00:22:00,
2013-06-08 20:27:00,60.3,58.3,29.98,South,171,0.0,0.0,93,0.00,,,0.04,Wunderground v.1.15,2013-06-09 00:27:00,
2013-06-08 20:32:00,60.2,58.2,29.98,South,171,0.0,0.0,93,0.00,,,0.04,Wunderground v.1.15,2013-06-09 00:32:00,
2013-06-08 20:37:00,60.2,58.2,29.98,South,171,0.0,0.0,93,0.00,,,0.04,Wunderground v.1.15,2013-06-09 00:37:00,
2013-06-08 20:43:00,60.0,58.0,29.98,South,171,0.0,0.0,93,0.00,,,0.04,Wunderground v.1.15,2013-06-09 00:43:00,
2013-06-08 20:48:00,59.9,58.2,29.99,South,171,0.0,0.0,94,0.00,,,0.04,Wunderground v.1.15,2013-06-09 00:48:00,
2013-06-08 20:53:00,59.9,58.2,29.99,SW,232,0.0,2.0,94,0.00,,,0.04,Wunderground v.1.15,2013-06-09 00:53:00,
2013-06-08 20:58:00,59.8,58.1,29.99,WSW,252,1.0,5.0,94,0.00,,,0.04,Wunderground v.1.15,2013-06-09 00:58:00,
2013-06-08 21:03:00,59.8,58.1,30.00,WSW,252,0.0,1.0,94,0.00,,,0.04,Wunderground v.1.15,2013-06-09 01:03:00,
2013-06-08 21:08:00,59.9,58.2,30.00,WSW,242,0.0,3.0,94,0.00,,,0.04,Wunderground v.1.15,2013-06-09 01:08:00,
2013-06-08 21:14:00,59.8,57.8,30.00,West,265,0.0,2.0,93,0.00,,,0.04,Wunderground v.1.15,2013-06-09 01:14:00,
2013-06-08 21:19:00,59.8,58.1,30.00,West,265,0.0,2.0,94,0.00,,,0.04,Wunderground v.1.15,2013-06-09 01:19:00,
2013-06-08 21:24:00,59.7,57.7,30.01,West,261,0.0,2.0,93,0.00,,,0.04,Wunderground v.1.15,2013-06-09 01:24:00,
2013-06-08 21:29:00,59.6,57.6,30.01,SSW,206,0.0,3.0,93,0.00,,,0.04,Wunderground v.1.15,2013-06-09 01:29:00,
2013-06-08 21:34:00,59.6,57.6,30.02,SSW,205,0.0,1.0,93,0.00,,,0.04,Wunderground v.1.15,2013-06-09 01:34:00,
2013-06-08 21:39:00,59.5,57.5,30.02,SSW,205,0.0,0.0,93,0.00,,,0.04,Wunderground v.1.15,2013-06-09 01:39:00,
2013-06-08 21:45:00,59.4,57.4,30.02,SSW,207,0.0,3.0,93,0.00,,,0.04,Wunderground v.1.15,2013-06-09 01:45:00,
2013-06-08 21:50:00,59.3,57.3,30.02,SSW,207,0.0,0.0,93,0.00,,,0.04,Wunderground v.1.15,2013-06-09 01:50:00,
2013-06-08 21:55:00,59.3,57.3,30.02,NW,317,0.0,2.0,93,0.00,,,0.04,Wunderground v.1.15,2013-06-09 01:55:00,
2013-06-08 22:00:00,59.2,57.2,30.02,WNW,288,0.0,0.0,93,0.00,,,0.04,Wunderground v.1.15,2013-06-09 02:00:00,
2013-06-08 22:05:00,59.1,57.1,30.03,WNW,289,0.0,1.0,93,0.00,,,0.04,Wunderground v.1.15,2013-06-09 02:05:00,
2013-06-08 22:10:00,59.0,57.0,30.02,WNW,289,0.0,0.0,93,0.00,,,0.04,Wunderground v.1.15,2013-06-09 02:10:00,
2013-06-08 22:15:00,58.9,56.9,30.02,WNW,289,0.0,0.0,93,0.00,,,0.04,Wunderground v.1.15,2013-06-09 02:15:00,
2013-06-08 22:21:00,58.8,56.8,30.02,WNW,289,0.0,0.0,93,0.00,,,0.04,Wunderground v.1.15,2013-06-09 02:21:00,
2013-06-08 22:26:00,58.6,56.6,30.03,WNW,289,0.0,0.0,93,0.00,,,0.04,Wunderground v.1.15,2013-06-09 02:26:00,
2013-06-08 22:31:00,58.3,56.3,30.03,WNW,289,0.0,0.0,93,0.00,,,0.04,Wunderground v.1.15,2013-06-09 02:31:00,
2013-06-08 22:36:00,58.0,56.0,30.04,WNW,289,0.0,0.0,93,0.00,,,0.04,Wunderground v.1.15,2013-06-09 02:36:00,
2013-06-08 22:42:00,57.7,55.7,30.03,WNW,289,0.0,0.0,93,0.00,,,0.04,Wunderground v.1.15,2013-06-09 02:42:00,
2013-06-08 22:47:00,57.5,55.8,30.04,West,273,0.0,0.0,94,0.00,,,0.04,Wunderground v.1.15,2013-06-09 02:47:00,
2013-06-08 22:52:00,57.3,55.6,30.04,West,273,0.0,0.0,94,0.00,,,0.04,Wunderground v.1.15,2013-06-09 02:52:00,
2013-06-08 22:57:00,57.0,55.3,30.04,West,273,0.0,0.0,94,0.00,,,0.04,Wunderground v.1.15,2013-06-09 02:57:00,
2013-06-08 23:02:00,56.8,55.1,30.04,West,273,0.0,0.0,94,0.00,,,0.04,Wunderground v.1.15,2013-06-09 03:02:00,
2013-06-08 23:07:00,56.6,54.9,30.04,West,273,0.0,0.0,94,0.00,,,0.04,Wunderground v.1.15,2013-06-09 03:07:00,
2013-06-08 23:12:00,56.4,54.7,30.04,West,273,0.0,0.0,94,0.00,,,0.04,Wunderground v.1.15,2013-06-09 03:12:00,
2013-06-08 23:17:00,56.2,54.5,30.05,West,273,0.0,0.0,94,0.00,,,0.04,Wunderground v.1.15,2013-06-09 03:17:00,
2013-06-08 23:22:00,56.0,54.3,30.05,West,273,0.0,2.0,94,0.00,,,0.04,Wunderground v.1.15,2013-06-09 03:22:00,
2013-06-08 23:27:00,55.8,54.4,30.05,West,273,0.0,2.0,95,0.00,,,0.04,Wunderground v.1.15,2013-06-09 03:27:00,
2013-06-08 23:32:00,55.7,54.3,30.05,SE,142,0.0,0.0,95,0.00,,,0.04,Wunderground v.1.15,2013-06-09 03:32:00,
2013-06-08 23:37:00,55.5,54.1,30.05,SE,142,0.0,0.0,95,0.00,,,0.04,Wunderground v.1.15,2013-06-09 03:37:00,
2013-06-08 23:43:00,55.3,53.9,30.05,SE,142,0.0,0.0,95,0.00,,,0.04,Wunderground v.1.15,2013-06-09 03:43:00,
2013-06-08 23:48:00,55.3,54.2,30.05,SE,142,0.0,0.0,96,0.00,,,0.04,Wunderground v.1.15,2013-06-09 03:48:00,
2013-06-08 23:53:00,55.4,54.3,30.05,SE,142,0.0,0.0,96,0.00,,,0.04,Wunderground v.1.15,2013-06-09 03:53:00,
2013-06-08 23:58:00,55.4,54.3,30.05,SW,229,0.0,1.0,96,0.00,,,0.04,Wunderground v.1.15,2013-06-09 03:58:00,